Weather History for Mobile, AL

Change the Weather History Date:

Saturday, January 19, 2013

  Actual Average Record
Temperature  
Mean Temperature 49 °F 50 °F  
Max Temperature 63 °F 61 °F 78 °F (1999)
Min Temperature 35 °F 40 °F 12 °F (1977)
Degree Days  
Heating Degree Days 16 15  
Month to date heating degree days 211 285  
Since 1 July heating degree days 812 947  
Cooling Degree Days 0 0  
Month to date cooling degree days 19 0  
Year to date cooling degree days 19 0  
Moisture  
Dew Point 37 °F    
Average Humidity 66    
Maximum Humidity 89    
Minimum Humidity 42    
Precipitation  
Precipitation 0.00 in 0.19 in 3.18 in (1963)
Month to date precipitation 1.96 3.41  
Year to date precipitation 1.96 3.41  
Snow  
Snow 0.00 in 0.00 in - ()
Month to date snowfall 0.0 0.0  
Since 1 July snowfall 0.0 T  
Snow Depth 0.00 in    
Sea Level Pressure  
Sea Level Pressure 30.32 in    
Wind  
Wind Speed 2 mph (NE)    
Max Wind Speed 9 mph    
Max Gust Speed 12 mph    
Visibility 10 miles    
Events      
T = Trace of Precipitation, MM = Missing Value Source: NWS Daily Summary

Daily Weather History Graph

Daily Weather History Graph

Search for Another Location

Airport:

Trip Planner

Search our weather history database for the weather conditions in past years. The results will help you decide how hot, cold, wet, or windy it might be!

Date:

Astronomy

Jan. 19, 2013 Rise Set
Actual Time 6:50 AM CST 5:17 PM CST
Civil Twilight 6:24 AM CST 5:43 PM CST
Nautical Twilight 5:54 AM CST 6:13 PM CST
Astronomical Twilight 5:25 AM CST 6:41 PM CST
Moon 11:39 AM CST (1/19) 12:30 AM CST (1/19)
Length of Visible Light 11h 19m
Length of Day
10h 27m
First Quarter, 57% of the Moon is Illuminated
Jan 19
First Quarter
Jan 26
Full
Feb 3
Last Quarter
Feb 10
New
Feb 17
First Quarter

Hourly Weather History & Observations

Time (CST) Temp. Windchill Dew Point Humidity Pressure Visibility Wind Dir Wind Speed Gust Speed Precip Events Conditions
12:56 AM 39.0 °F 36.8 °F 32.0 °F 76% 30.39 in 10.0 mi North 3.5 mph - N/A   Clear
1:56 AM 37.0 °F 34.5 °F 32.0 °F 82% 30.39 in 10.0 mi North 3.5 mph - N/A   Clear
2:56 AM 39.0 °F 35.7 °F 32.0 °F 76% 30.38 in 10.0 mi North 4.6 mph - N/A   Clear
3:56 AM 39.0 °F 35.7 °F 32.0 °F 76% 30.37 in 10.0 mi NNE 4.6 mph - N/A   Overcast
4:56 AM 41.0 °F 39.0 °F 32.0 °F 70% 30.37 in 10.0 mi NE 3.5 mph - N/A   Mostly Cloudy
5:56 AM 39.0 °F 35.7 °F 32.0 °F 76% 30.37 in 10.0 mi NE 4.6 mph - N/A   Scattered Clouds
6:56 AM 37.9 °F 35.5 °F 32.0 °F 79% 30.38 in 10.0 mi NNE 3.5 mph - N/A   Partly Cloudy
7:56 AM 43.0 °F 41.3 °F 34.0 °F 71% 30.39 in 10.0 mi NE 3.5 mph - N/A   Partly Cloudy
8:56 AM 48.9 °F - 32.0 °F 52% 30.40 in 10.0 mi ENE 5.8 mph - N/A   Partly Cloudy
9:56 AM 54.0 °F - 35.1 °F 49% 30.40 in 10.0 mi ENE 4.6 mph - N/A   Scattered Clouds
10:56 AM 57.9 °F - 37.0 °F 46% 30.38 in 10.0 mi East 5.8 mph - N/A   Mostly Cloudy
11:56 AM 61.0 °F - 37.9 °F 42% 30.34 in 10.0 mi NNE 3.5 mph - N/A   Mostly Cloudy
12:56 PM 62.1 °F - 39.0 °F 43% 30.30 in 10.0 mi SSE 3.5 mph - N/A   Mostly Cloudy
1:56 PM 61.0 °F - 39.9 °F 46% 30.27 in 10.0 mi Calm Calm - N/A   Mostly Cloudy
2:56 PM 63.0 °F - 41.0 °F 45% 30.26 in 10.0 mi Calm Calm - N/A   Mostly Cloudy
3:56 PM 62.1 °F - 41.0 °F 46% 30.26 in 10.0 mi Calm Calm - N/A   Mostly Cloudy
4:56 PM 60.1 °F - 42.1 °F 51% 30.25 in 10.0 mi Calm Calm - N/A   Mostly Cloudy
6:07 PM 53.6 °F - 42.8 °F 67% 30.27 in 10.0 mi Calm Calm - N/A   Mostly Cloudy
6:56 PM 50.0 °F - 43.0 °F 77% 30.27 in 10.0 mi Calm Calm - N/A   Mostly Cloudy
7:56 PM 46.0 °F - 42.1 °F 86% 30.27 in 10.0 mi Calm Calm - N/A   Scattered Clouds
8:56 PM 46.0 °F - 41.0 °F 83% 30.27 in 10.0 mi Calm Calm - N/A   Scattered Clouds
9:56 PM 43.0 °F - 39.9 °F 89% 30.27 in 10.0 mi Calm Calm - N/A   Partly Cloudy
10:56 PM 42.1 °F - 39.0 °F 89% 30.26 in 7.0 mi Calm Calm - N/A   Partly Cloudy
11:56 PM 39.9 °F 37.8 °F 37.9 °F 93% 30.27 in 6.0 mi NW 3.5 mph - N/A   Partly Cloudy